Regional Weather Roundup
Issued by NWS State College, PA

Home | Current Version | Previous Version | Graphics & Text | Print | Product List | Glossary On
Versions: 1 2 3 4 5 6 7 8 9 10 11 12 13 14 15 16 17 18 19 20 21 22 23 24 25 26 27 28 29 30 31 32 33 34 35 36 37 38 39 40 41 42 43 44 45 46 47 48 49 50
000
ASUS41 KCTP 261203
RWRCTP
NATIONAL WEATHER SERVICE STATE COLLEGE PA
800 AM EDT TUE SEP 26 2017

Note: "fair" indicates few or no clouds below 12,000 feet with no
significant weather and/or obstructions to visibility.

* = STATION THAT DOES NOT REPORT PRECIPITATION /E.G. RAIN...SNOW...ETC/
    THUNDER OR FOG.

PAZ002>004-007>009-013>016-020>023-029>032-261300-
WESTERN PENNSYLVANIA

CITY           SKY/WX    TMP DP  RH WIND       PRES   REMARKS
ERIE           CLEAR     69  63  81 S3        30.03R
MEADVILLE      CLEAR     68  66  93 CALM      30.07R
FRANKLIN*      MOCLDY    63  63 100 CALM      30.09R VSB<1/4
NEW CASTLE     FAIR      62  62 100 CALM      30.07R FOG
BEAVER COUNTY  CLEAR     66  61  82 CALM      30.07R
BUTLER*        MOCLDY    63  62  97 CALM      30.08R FOG
PITTSBURGH INT MOCLDY    66  63  90 CALM      30.06R
PITTSBURGH     MOCLDY    69  65  86 CALM      30.06R
INDIANA*       CLEAR     66  64  94 E5        30.11R
LATROBE        MOCLDY    63  63 100 CALM      30.07R FOG
WASHINGTON CO* PTCLDY    61  59  94 CALM      30.07R
$$

PAZ004>006-010>012-017>019-024>028-033>037-041-042-045-046-049>053-261300-
CENTRAL PENNSYLVANIA

CITY           SKY/WX    TMP DP  RH WIND       PRES   REMARKS
BRADFORD       MOCLDY    61  61 100 CALM      30.11S
DUBOIS         CLEAR     66  62  87 CALM      30.09R FOG
CLEARFIELD     FOG       61  61 100 N3        30.10R VSB<1/4
JOHNSTOWN      CLEAR     68  64  87 CALM      30.11R
ALTOONA        FOG       61  61 100 CALM      30.09R VSB 1/4
STATE COLLEGE  FOG       63  63 100 CALM      30.08R VSB 1/2
WILLIAMSPORT   FOG       67  67 100 CALM      30.05R VSB 1/4
SELINSGROVE    CLOUDY    65  65 100 CALM      30.06R FOG
FT INDIANTOWN  PTSUNNY   65  65 100 NW3       30.05R
CAPITAL CITY   MOSUNNY   69  65  86 CALM      30.04R FOG
HARRISBURG     MOSUNNY   69  68  96 N3        30.03R FOG
YORK           CLOUDY    62  62 100 CALM      30.05R FOG
$$

PAZ038>040-043-044-047-048-054-055-060>062-067>071-261300-
EASTERN PENNSYLVANIA

CITY           SKY/WX    TMP DP  RH WIND       PRES   REMARKS
SCRANTON       MOSUNNY   67  63  87 E6        30.08R
MOUNT POCONO   SUNNY     63  62  97 N3        30.10S
ALLENTOWN      MOSUNNY   66  63  90 E5        30.05R
QUAKERTOWN*    MOSUNNY   64  64 100 CALM      30.06R
READING        MOSUNNY   68  67  96 N3        30.03R
LANCASTER      MOSUNNY   68  68 100 CALM      30.04S FOG
COATESVILLE    SUNNY     66  64  94 N3        30.06R
POTTSTOWN      MOSUNNY   66  64  93 CALM      30.06R
BLUE BELL      PTSUNNY   63  63 100 E5        30.06R
DOYLESTOWN     CLOUDY    64  64 100 CALM      30.04S FOG
WILLOW GROVE   NOT AVBL
NORTH PHILA    CLOUDY    69  66  90 NE7       30.06R
PHILADELPHIA   CLOUDY    69  66  90 NE8       30.04R
$$




USA.gov is the U.S. government's official web portal to all federal, state and local government web resources and services.